[TLELIST] Archives

 

[TLELIST] Current TLEs

October 9th 2023 PDT

HST 1 20580U 90037B 23282.20296469 .00009015 00000-0 46857-3 0 9997 2 20580 28.4684 228.8047 0002566 173.0024 330.1787 15.14351918639023 ISS (ZARYA) 1 25544U 98067A 23282.30784722 .00020103 00000-0 35964-3 0 9996 2 25544 51.6405 123.2746 0005141 89.6288 248.8929 15.49967065419480 CXO 1 25867U 99040B 23284.30528389 .00001100 00000-0 00000-0 0 9999 2 25867 37.4084 181.9652 9046214 274.6064 0.4955 0.37814756 13618 ...Continue Reading

[TLELIST] Current TLEs

October 9th 2023 PDT

HST 1 20580U 90037B 23282.20296469 .00009015 00000-0 46857-3 0 9997 2 20580 28.4684 228.8047 0002566 173.0024 330.1787 15.14351918639023 ISS (ZARYA) 1 25544U 98067A 23282.30784722 .00020103 00000-0 35964-3 0 9996 2 25544 51.6405 123.2746 0005141 89.6288 248.8929 15.49967065419480 CXO 1 25867U 99040B 23284.30528389 .00001100 00000-0 00000-0 0 9999 2 25867 37.4084 181.9652 9046214 274.6064 0.4955 0.37814756 13618 ...Continue Reading

[TLELIST] Current TLEs

October 9th 2023 PDT

HST 1 20580U 90037B 23282.20296469 .00009015 00000-0 46857-3 0 9997 2 20580 28.4684 228.8047 0002566 173.0024 330.1787 15.14351918639023 ISS (ZARYA) 1 25544U 98067A 23282.30784722 .00020103 00000-0 35964-3 0 9996 2 25544 51.6405 123.2746 0005141 89.6288 248.8929 15.49967065419480 CXO 1 25867U 99040B 23284.30528389 .00001100 00000-0 00000-0 0 9999 2 25867 37.4084 181.9652 9046214 274.6064 0.4955 0.37814756 13618 ...Continue Reading

[TLELIST] Current TLEs

October 8th 2023 PDT

HST 1 20580U 90037B 23281.19211652 .00008653 00000-0 44963-3 0 9998 2 20580 28.4684 235.5420 0002597 162.2268 219.2084 15.14333632638868 ISS (ZARYA) 1 25544U 98067A 23281.42040407 .00020264 00000-0 36288-3 0 9991 2 25544 51.6406 127.6700 0005285 86.2261 337.2577 15.49931531419359 CXO 1 25867U 99040B 23281.65886807 .00001046 00000-0 00000-0 0 9995 2 25867 37.3943 182.3034 9047864 274.3273 0.2458 0.37808497 13612 ...Continue Reading

[TLELIST] Current TLEs

October 8th 2023 PDT

HST 1 20580U 90037B 23281.19211652 .00008653 00000-0 44963-3 0 9998 2 20580 28.4684 235.5420 0002597 162.2268 219.2084 15.14333632638868 ISS (ZARYA) 1 25544U 98067A 23281.42040407 .00020264 00000-0 36288-3 0 9991 2 25544 51.6406 127.6700 0005285 86.2261 337.2577 15.49931531419359 CXO 1 25867U 99040B 23281.65886807 .00001046 00000-0 00000-0 0 9995 2 25867 37.3943 182.3034 9047864 274.3273 0.2458 0.37808497 13612 ...Continue Reading

[TLELIST] Current TLEs

October 8th 2023 PDT

HST 1 20580U 90037B 23281.19211652 .00008653 00000-0 44963-3 0 9998 2 20580 28.4684 235.5420 0002597 162.2268 219.2084 15.14333632638868 ISS (ZARYA) 1 25544U 98067A 23281.42040407 .00020264 00000-0 36288-3 0 9991 2 25544 51.6406 127.6700 0005285 86.2261 337.2577 15.49931531419359 CXO 1 25867U 99040B 23281.65886807 .00001046 00000-0 00000-0 0 9995 2 25867 37.3943 182.3034 9047864 274.3273 0.2458 0.37808497 13612 ...Continue Reading

[TLELIST] Current TLEs

October 7th 2023 PDT

HST 1 20580U 90037B 23280.01049774 .00008962 00000-0 46628-3 0 9995 2 20580 28.4687 243.4169 0002630 150.6742 256.2655 15.14313965638687 ISS (ZARYA) 1 25544U 98067A 23280.37572917 .00019568 00000-0 35128-3 0 9997 2 25544 51.6407 132.8447 0005407 80.4167 270.2627 15.49886039419188 CXO 1 25867U 99040B 23281.65886807 .00001046 00000-0 00000-0 0 9995 2 25867 37.3943 182.3034 9047864 274.3273 0.2458 0.37808497 13612 ...Continue Reading

[TLELIST] Current TLEs

October 7th 2023 PDT

HST 1 20580U 90037B 23280.01049774 .00008962 00000-0 46628-3 0 9995 2 20580 28.4687 243.4169 0002630 150.6742 256.2655 15.14313965638687 ISS (ZARYA) 1 25544U 98067A 23280.37572917 .00019568 00000-0 35128-3 0 9997 2 25544 51.6407 132.8447 0005407 80.4167 270.2627 15.49886039419188 CXO 1 25867U 99040B 23281.65886807 .00001046 00000-0 00000-0 0 9995 2 25867 37.3943 182.3034 9047864 274.3273 0.2458 0.37808497 13612 ...Continue Reading

[TLELIST] Current TLEs

October 7th 2023 PDT

HST 1 20580U 90037B 23280.01049774 .00008962 00000-0 46628-3 0 9995 2 20580 28.4687 243.4169 0002630 150.6742 256.2655 15.14313965638687 ISS (ZARYA) 1 25544U 98067A 23280.37572917 .00019568 00000-0 35128-3 0 9997 2 25544 51.6407 132.8447 0005407 80.4167 270.2627 15.49886039419188 CXO 1 25867U 99040B 23281.65886807 .00001046 00000-0 00000-0 0 9995 2 25867 37.3943 182.3034 9047864 274.3273 0.2458 0.37808497 13612 ...Continue Reading

[TLELIST] Current TLEs

October 6th 2023 PDT

HST 1 20580U 90037B 23278.64784743 .00009067 00000-0 47218-3 0 9996 2 20580 28.4690 252.4987 0002631 136.7663 26.9147 15.14290805638211 ISS (ZARYA) 1 25544U 98067A 23279.42111712 .00018776 00000-0 33792-3 0 9998 2 25544 51.6405 137.5729 0005353 77.7362 343.1355 15.49844494419049 CXO 1 25867U 99040B 23279.01445405 .00000960 00000-0 00000-0 0 9991 2 25867 37.3871 182.6615 9048725 274.0211 0.2816 0.37811202 13599 ...Continue Reading
  • This mailing list is a public mailing list - anyone may join or leave, at any time.
  • This mailing list is announce-only.

International Space Station (ISS) / Hubble Space Telescope (HST) / Chandra X-Ray Observatory Orbital Data via EMAIL

Privacy Policy:

Private list